Simultaneous Nadir Overpasses (SNOs) Predictions

Prediction of SNOs between AQUA and NPP Satellite Orbit:

Table of predicted SNOs for the next 14.0 days since TLE Epoch: 11/17/2017
Index Date (AQUA) Time (AQUA) Lat,Lon (AQUA) SZA (AQUA ) Date (NPP) Time (NPP) Lat,Lon (NPP) SZA (NPP ) Distance(km) Time Diff (sec)
1 11/19/2017 05:32:12 75.69, -24.92 115.74 11/19/2017 05:31:28 75.69, -24.86 115.76 1.89 44
2 11/19/2017 06:21:22 -76.56, 145.48 65.19 11/19/2017 06:21:55 -76.56, 145.46 65.21 0.53 33
3 11/21/2017 21:48:32 76.12, 92.29 115.89 11/21/2017 21:48:12 76.13, 92.37 115.89 2.40 20
4 11/21/2017 22:37:43 -76.94, -97.32 64.98 11/21/2017 22:38:40 -76.94, -97.30 65.04 0.48 57
5 11/24/2017 13:15:54 -75.27, 38.02 62.65 11/24/2017 13:14:41 -75.28, 38.09 62.60 2.01 73
6 11/24/2017 14:05:02 76.11,-151.87 116.49 11/24/2017 14:05:07 76.10,-151.95 116.50 2.17 5
7 11/27/2017 05:32:21 -75.40, 154.26 62.24 11/27/2017 05:31:33 -75.39, 154.20 62.18 1.66 48
8 11/27/2017 06:21:21 76.62, -34.31 116.48 11/27/2017 06:21:50 76.62, -34.31 116.45 0.15 29
9 11/29/2017 21:48:38 -76.01, -88.07 62.38 11/29/2017 21:48:14 -76.02, -88.03 62.37 1.23 24




NCC Satellite Simultaneous Nadir Overpasses (SNOs) Prediction Service
